datetime,average secondary canal gage height
2019-02-20,75.35
2019-02-21,75.18
2019-02-22,75.31
2019-02-23,76.12
2019-02-24,76.41
2019-02-25,76.65
2019-02-26,76.77
2019-02-27,76.83
2019-02-28,75.3
2019-03-01,75.22
2019-03-02,75.64
2019-03-03,76.89
2019-03-04,76.2
2019-03-05,75.7
2019-03-06,75.99
2019-03-07,75.61
2019-03-08,75.59
2019-03-09,75.63
2019-03-10,75.58
2019-03-11,75.54
2019-03-12,75.52
2019-03-13,75.43
2019-03-14,75.36
2019-03-15,75.38
2019-03-16,74.8
2019-03-17,74.88
2019-03-18,74.65
2019-03-19,74.44
2019-03-20,74.55
2019-03-21,74.94
2019-03-22,74.5
2019-03-23,74.64
2019-03-24,75.16
2019-03-25,74.93
2019-03-26,74.6
2019-03-27,74.61
2019-03-28,74.61
2019-03-29,74.42
2019-03-30,74.51
2019-03-31,74.44
2019-04-01,74.38
2019-04-02,74.45
2019-04-03,74.87
2019-04-04,75.07
2019-04-05,75.04
2019-04-06,74.53
2019-04-07,74.42
2019-04-08,74.62
2019-04-09,74.6
2019-04-10,74.47
2019-04-11,75.15
2019-04-12,75.18
2019-04-13,74.96
2019-04-14,74.7
2019-04-15,74.85
2019-04-16,75.57
2019-04-17,75.66
2019-04-18,75.66
2019-04-19,75.67
2019-04-20,75.59
2019-04-21,75.04
2019-04-22,74.64
2019-04-23,74.37
2019-04-24,75.23
2019-04-25,75.01
2019-04-26,75.67
2019-04-27,75.7
2019-04-28,75.31
2019-04-29,74.52
2019-04-30,74.91
2019-05-01,74.73
2019-05-02,74.65
2019-05-03,75.36
2019-05-04,75.0
2019-05-05,74.67
2019-05-06,74.55
2019-05-07,74.56
2019-05-08,74.63
2019-05-09,75.1
2019-05-10,74.91
2019-05-11,74.68
2019-05-12,74.78
2019-05-13,74.75
2019-05-14,74.93
2019-05-15,75.03
2019-05-16,74.63
2019-05-17,74.41
2019-05-18,74.42
2019-05-19,74.36
2019-05-20,74.19
2019-05-21,74.77
2019-05-22,75.02
2019-05-23,74.65
2019-05-24,74.36
2019-05-25,74.48
2019-05-26,74.14
2019-05-27,74.5
2019-05-28,74.81
2019-05-29,74.48
2019-05-30,74.47
2019-05-31,74.11
2019-06-01,74.65
2019-06-02,74.94
2019-06-03,74.43
2019-06-04,74.33
2019-06-05,74.64
2019-06-06,74.62
2019-06-07,74.68
2019-06-08,74.45
2019-06-09,74.59
2019-06-10,74.23
2019-06-11,74.7
2019-06-12,74.8
2019-06-13,75.01
2019-06-14,74.65
2019-06-15,74.4
2019-06-16,74.4
2019-06-17,74.4
2019-06-18,74.4
2019-06-19,74.85
2019-06-20,75.03
2019-06-21,74.9
2019-06-22,75.02
2019-06-23,74.92
2019-06-24,74.55
2019-06-25,74.9
2019-06-26,75.1
2019-06-27,74.64
2019-06-28,74.5
2019-06-29,74.62
2019-06-30,74.59
2019-07-01,74.64
2019-07-02,74.84
2019-07-03,75.26
2019-07-04,75.27
2019-07-05,75.65
2019-07-06,74.61
2019-07-07,73.7
2019-07-08,74.44
2019-07-09,73.96
2019-07-10,73.88
2019-07-11,74.15
2019-07-12,74.22
2019-07-13,74.22
2019-07-14,74.03
2019-07-15,74.15
2019-07-16,74.35
2019-07-17,74.67
2019-07-18,75.44
2019-07-19,74.14
2019-07-20,74.19
2019-07-21,74.78
2019-07-22,75.3
2019-07-23,74.8
2019-07-24,74.38
2019-07-25,74.62
2019-07-26,74.9
2019-07-27,74.89
2019-07-28,74.66
2019-07-29,74.53
2019-07-30,74.44
2019-07-31,74.3
2019-08-01,74.24
2019-08-02,74.02
2019-08-03,74.05
2019-08-04,74.48
2019-08-05,75.2
2019-08-06,75.31
2019-08-07,75.34
2019-08-08,74.81
2019-08-09,74.38
2019-08-10,74.36
2019-08-11,74.38
2019-08-12,74.48
2019-08-13,74.4
2019-08-14,74.21
2019-08-15,74.25
2019-08-16,74.57
2019-08-17,74.8
2019-08-18,75.08
2019-08-19,75.46
2019-08-20,75.24
2019-08-21,74.62
2019-08-22,73.72
2019-08-23,73.62
2019-08-24,73.75
2019-08-25,74.12
2019-08-26,75.19
2019-08-27,75.53
2019-08-28,74.75
2019-08-29,74.23
2019-08-30,74.23
2019-08-31,74.31
2019-09-01,74.27
2019-09-02,73.85
2019-09-03,74.28
2019-09-04,74.41
2019-09-05,74.68
2019-09-06,74.16
2019-09-07,74.14
2019-09-08,74.81
2019-09-09,74.4
2019-09-10,74.05
2019-09-11,73.82
2019-09-12,73.84
2019-09-13,74.11
2019-09-14,74.52
2019-09-15,74.59
2019-09-16,74.74
2019-09-17,74.56
2019-09-18,75.17
2019-09-19,74.9
2019-09-20,74.17
2019-09-21,73.87
2019-09-22,74.25
2019-09-23,73.99
2019-09-24,74.14
2019-09-25,73.95
2019-09-26,73.52
2019-09-27,73.54
2019-09-28,73.6
2019-09-29,74.22
2019-09-30,74.39
2019-10-01,74.56
2019-10-02,74.25
2019-10-03,74.3
2019-10-04,74.44
2019-10-05,74.29
2019-10-06,74.53
2019-10-07,74.41
2019-10-08,74.34
2019-10-09,74.69
2019-10-10,74.74
2019-10-11,74.39
2019-10-12,74.03
2019-10-13,74.38
2019-10-14,74.26
2019-10-15,74.6
2019-10-16,74.67
2019-10-17,74.35
2019-10-18,74.27
2019-10-19,74.34
2019-10-20,74.58
2019-10-21,74.66
2019-10-22,74.18
2019-10-23,73.81
2019-10-24,74.34
2019-10-25,74.3
2019-10-26,74.32
2019-10-27,74.52
2019-10-28,74.8
2019-10-29,74.33
2019-10-30,74.61
2019-10-31,74.39
2019-11-01,74.51
2019-11-02,74.48
2019-11-03,74.34
2019-11-04,74.11
2019-11-05,74.19
2019-11-06,73.73
2019-11-07,74.14
2019-11-08,73.52
2019-11-09,74.08
2019-11-10,74.23
2019-11-11,74.3
2019-11-12,74.45
2019-11-13,74.43
2019-11-14,74.16
2019-11-15,74.71
2019-11-16,74.5
2019-11-17,74.45
2019-11-18,74.05
2019-11-19,74.37
2019-11-20,74.5
2019-11-21,74.37
2019-11-22,75.04
2019-11-23,74.35
2019-11-24,74.34
2019-11-25,74.33
2019-11-26,74.4
2019-11-27,74.41
2019-11-28,74.47
2019-11-29,74.39
2019-11-30,74.36
2019-12-01,74.41
2019-12-02,74.36
2019-12-03,74.35
2019-12-04,74.21
2019-12-05,74.39
2019-12-06,74.56
2019-12-07,76.18
2019-12-08,77.59
2019-12-09,77.46
2019-12-10,77.42
2019-12-11,77.41
2019-12-12,77.43
2019-12-13,77.34
2019-12-14,77.33
2019-12-15,77.37
2019-12-16,77.29
2019-12-17,77.37
2019-12-18,77.4
2019-12-19,77.45
2019-12-20,77.39
2019-12-21,77.38
2019-12-22,77.44
2019-12-23,77.37
2019-12-24,77.43
2019-12-25,77.33
2019-12-26,77.34
2019-12-27,77.33
2019-12-28,77.52
2019-12-29,77.5
2019-12-30,77.58
2019-12-31,77.55
2020-01-01,77.57
2020-01-02,77.39
2020-01-03,77.46
2020-01-04,77.46
2020-01-05,77.41
2020-01-06,77.43
2020-01-07,77.51
2020-01-08,77.56
2020-01-09,77.52
2020-01-10,77.47
2020-01-11,77.44
2020-01-12,77.27
2020-01-13,77.38
2020-01-14,77.38
2020-01-15,77.28
2020-01-16,77.32
2020-01-17,77.2
2020-01-18,77.44
2020-01-19,77.5
2020-01-20,77.42
2020-01-21,77.4
2020-01-22,77.51
2020-01-23,77.45
2020-01-24,77.46
2020-01-25,77.4
2020-01-26,77.48
2020-01-27,77.43
2020-01-28,77.31
2020-01-29,76.7
2020-01-30,76.96
2020-01-31,76.47
2020-02-01,76.15
2020-02-02,76.46
2020-02-03,76.78
2020-02-04,76.58
2020-02-05,75.53
2020-02-06,76.76
2020-02-07,77.25
2020-02-08,77.03
2020-02-09,76.01
2020-02-10,75.31
2020-02-11,76.5
2020-02-12,75.38
2020-02-13,75.68
2020-02-14,76.75
2020-02-15,76.43
2020-02-16,76.36
2020-02-17,76.05
2020-02-18,76.08
2020-02-19,76.5
2020-02-20,75.67
2020-02-21,75.12
2020-02-22,74.76
2020-02-23,74.93
2020-02-24,75.01
2020-02-25,75.59
2020-02-26,76.18
2020-02-27,76.17
2020-02-28,75.84
2020-02-29,76.16
2020-03-01,76.07
2020-03-02,75.8
2020-03-03,75.76
2020-03-04,75.29
2020-03-05,75.1
2020-03-06,74.99
2020-03-07,74.83
2020-03-08,74.75
2020-03-09,75.37
2020-03-10,76.25
2020-03-11,76.5
2020-03-12,74.89
2020-03-13,74.52
2020-03-14,74.53
2020-03-15,74.28
2020-03-16,74.6
2020-03-17,75.33
2020-03-18,76.56
2020-03-19,77.29
2020-03-20,77.42
2020-03-21,77.48
2020-03-22,77.33
2020-03-23,77.13
2020-03-24,76.71
2020-03-25,76.48
2020-03-26,76.49
2020-03-27,76.48
2020-03-28,76.93
2020-03-29,76.82
2020-03-30,76.37
2020-03-31,76.31
2020-04-01,75.95
2020-04-02,75.74
2020-04-03,75.7
2020-04-04,75.39
2020-04-05,74.97
2020-04-06,74.72
2020-04-07,74.73
2020-04-08,74.43
2020-04-09,74.89
2020-04-10,74.86
2020-04-11,74.9
2020-04-12,74.78
2020-04-13,74.9
2020-04-14,74.69
2020-04-15,74.96
2020-04-16,74.7
2020-04-17,74.61
2020-04-18,74.9
2020-04-19,74.79
2020-04-20,74.33
2020-04-21,74.55
2020-04-22,74.43
2020-04-23,74.37
2020-04-24,73.97
2020-04-25,74.17
2020-04-26,74.29
2020-04-27,74.75
2020-04-28,74.66
2020-04-29,73.94
2020-04-30,74.2
2020-05-01,74.17
2020-05-02,74.18
2020-05-03,75.31
2020-05-04,74.89
2020-05-05,74.22
2020-05-06,73.62
2020-05-07,74.09
2020-05-08,74.74
2020-05-09,75.4
2020-05-10,75.51
2020-05-11,74.68
2020-05-12,75.35
2020-05-13,75.3
2020-05-14,74.68
2020-05-15,75.28
2020-05-16,75.98
2020-05-17,76.09
2020-05-18,76.71
2020-05-19,76.92
2020-05-20,76.62
2020-05-21,76.48
2020-05-22,76.17
2020-05-23,75.87
2020-05-24,76.21
2020-05-25,76.16
2020-05-26,75.94
2020-05-27,75.64
2020-05-28,75.55
2020-05-29,75.57
2020-05-30,74.96
2020-05-31,74.88
2020-06-01,74.87
2020-06-02,75.37
2020-06-03,75.95
2020-06-04,75.91
2020-06-05,76.63
2020-06-06,77.11
2020-06-07,76.69
2020-06-08,76.5
2020-06-09,76.48
2020-06-10,76.9
2020-06-11,77.17
2020-06-12,77.2
2020-06-13,77.28
2020-06-14,76.95
2020-06-15,76.62
2020-06-16,77.0
2020-06-17,77.06
2020-06-18,76.63
2020-06-19,76.76
2020-06-20,77.14
2020-06-21,76.96
2020-06-22,76.66
2020-06-23,76.01
2020-06-24,76.42
2020-06-25,77.08
2020-06-26,76.94
2020-06-27,76.52
2020-06-28,76.93
2020-06-29,76.93
2020-06-30,77.08
2020-07-01,76.85
2020-07-02,77.01
2020-07-03,77.25
2020-07-04,77.04
2020-07-05,77.36
2020-07-06,77.37
2020-07-07,77.64
2020-07-08,77.55
2020-07-09,77.78
2020-07-10,77.35
2020-07-11,76.75
2020-07-12,76.73
2020-07-13,76.91
2020-07-14,77.16
2020-07-15,77.18
2020-07-16,76.78
2020-07-17,76.6
2020-07-18,76.24
2020-07-19,75.82
2020-07-20,76.4
2020-07-21,76.92
2020-07-22,77.25
2020-07-23,76.98
2020-07-24,76.67
2020-07-25,76.82
2020-07-26,76.85
2020-07-27,77.16
2020-07-28,76.8
2020-07-29,76.06
2020-07-30,75.88
2020-07-31,76.28
2020-08-01,76.28
2020-08-02,76.22
2020-08-03,76.82
2020-08-04,77.25
2020-08-05,76.71
2020-08-06,76.33
2020-08-07,76.12
2020-08-08,76.28
2020-08-09,75.96
2020-08-10,75.93
2020-08-11,74.86
2020-08-12,75.32
2020-08-13,75.59
2020-08-14,75.35
2020-08-15,75.03
2020-08-16,74.73
2020-08-17,74.61
2020-08-18,74.58
2020-08-19,74.39
2020-08-20,74.66
2020-08-21,75.21
2020-08-22,75.26
2020-08-23,75.02
2020-08-24,74.94
2020-08-25,74.88
2020-08-26,74.66
2020-08-27,74.21
2020-08-28,74.33
2020-08-29,73.78
2020-08-30,74.07
2020-08-31,74.17
2020-09-01,73.85
2020-09-02,73.74
2020-09-03,73.58
2020-09-04,74.22
2020-09-05,74.57
2020-09-06,74.68
2020-09-07,74.29
2020-09-08,74.71
2020-09-09,74.34
2020-09-10,74.57
2020-09-11,75.02
2020-09-12,74.54
2020-09-13,75.02
2020-09-14,74.39
2020-09-15,74.45
2020-09-16,74.07
2020-09-17,74.82
2020-09-18,74.79
2020-09-19,75.1
2020-09-20,74.33
2020-09-21,75.12
2020-09-22,75.16
2020-09-23,75.38
2020-09-24,74.8
2020-09-25,74.93
2020-09-26,74.86
2020-09-27,74.92
2020-09-28,74.87
2020-09-29,74.85
2020-09-30,74.49
2020-10-01,74.84
2020-10-02,73.9
2020-10-03,74.07
2020-10-04,74.84
2020-10-05,74.63
2020-10-06,74.51
2020-10-07,74.52
2020-10-08,74.68
2020-10-09,74.21
2020-10-10,74.58
2020-10-11,74.68
2020-10-12,74.76
2020-10-13,74.66
2020-10-14,74.02
2020-10-15,74.36
2020-10-16,73.8
2020-10-17,74.43
2020-10-18,73.93
2020-10-19,74.28
2020-10-20,74.07
2020-10-21,74.45
2020-10-22,74.78
2020-10-23,74.33
2020-10-24,74.32
2020-10-25,74.39
2020-10-26,74.7
2020-10-27,74.37
2020-10-28,74.37
2020-10-29,74.43
2020-10-30,74.64
2020-10-31,74.58
2020-11-01,74.64
2020-11-02,74.2
2020-11-03,73.55
2020-11-04,73.79
2020-11-05,73.77
2020-11-06,73.57
2020-11-07,73.51
2020-11-08,73.57
2020-11-09,74.55
2020-11-10,74.04
2020-11-11,73.74
2020-11-12,74.38
2020-11-13,73.81
2020-11-14,74.24
2020-11-15,74.35
2020-11-16,73.96
2020-11-17,74.47
2020-11-18,74.06
2020-11-19,73.95
2020-11-20,73.56
2020-11-21,73.88
2020-11-22,73.64
2020-11-23,73.53
2020-11-24,73.32
2020-11-25,73.56
2020-11-26,73.65
2020-11-27,74.64
2020-11-28,74.58
2020-11-29,74.53
2020-11-30,75.74
2020-12-01,75.47
2020-12-02,74.57
2020-12-03,73.95
2020-12-04,74.44
2020-12-05,73.88
2020-12-06,73.95
2020-12-07,74.63
2020-12-08,74.01
2020-12-09,73.54
2020-12-10,74.37
2020-12-11,73.79
2020-12-12,73.57
2020-12-13,73.82
2020-12-14,74.43
2020-12-15,73.75
2020-12-16,74.19
2020-12-17,74.11
2020-12-18,73.72
2020-12-19,74.09
2020-12-20,74.94
2020-12-21,74.97
2020-12-22,74.94
2020-12-23,74.67
2020-12-24,74.0
2020-12-25,74.04
2020-12-26,74.4
2020-12-27,74.1
2020-12-28,74.18
2020-12-29,74.52
2020-12-30,74.125
2020-12-31,73.73
2021-01-01,74.52
2021-01-02,74.14
2021-01-03,74.36
2021-01-04,73.98
2021-01-05,74.18
2021-01-06,73.84
2021-01-07,74.19
2021-01-08,74.31
2021-01-09,74.28
2021-01-10,74.42
2021-01-11,73.7
2021-01-12,74.45
2021-01-13,74.37
2021-01-14,74.05
2021-01-15,74.21
2021-01-16,73.81
2021-01-17,74.3
2021-01-18,74.7
2021-01-19,74.29
2021-01-20,73.73
2021-01-21,74.52
2021-01-22,73.89
2021-01-23,74.24
2021-01-24,73.93
2021-01-25,74.31
2021-01-26,73.88
2021-01-27,73.96
2021-01-28,74.27
2021-01-29,73.79
2021-01-30,74.1
2021-01-31,74.02
2021-02-01,74.13
2021-02-02,74.07
2021-02-03,73.93
2021-02-04,74.08
2021-02-05,74.2
2021-02-06,74.17
2021-02-07,74.13
2021-02-08,74.08
2021-02-09,74.05
2021-02-10,74.02
2021-02-11,73.99
2021-02-12,73.98
2021-02-13,74.02
2021-02-14,74.32
2021-02-15,74.45
2021-02-16,74.4
2021-02-17,74.19
2021-02-18,73.89
2021-02-19,73.34
2021-02-20,73.13
2021-02-21,73.13
2021-02-22,73.13
2021-02-23,73.13
2021-02-24,73.13
2021-02-25,73.13
2021-02-26,73.13
2021-02-27,73.13
2021-02-28,73.13
2021-03-01,73.13
2021-03-02,73.13
2021-03-03,73.12
2021-03-04,73.12
2021-03-05,73.12
2021-03-06,73.12
2021-03-07,73.12
2021-03-08,73.12
2021-03-09,73.11
2021-03-10,73.12
2021-03-11,73.13
2021-03-12,73.13
2021-03-13,73.13
2021-03-14,73.13
2021-03-15,73.18
2021-03-16,73.13
2021-03-17,73.12
2021-03-18,73.12
2021-03-19,73.13
2021-03-20,73.14
2021-03-21,73.14
2021-03-22,73.1490698
2021-03-23,73.1341667
2021-03-24,73.1361458
2021-03-25,73.141875
2021-03-26,73.13
2021-03-27,73.1277083
2021-03-28,73.1280208
2021-03-29,73.143871
2021-03-30,73.11
2021-03-31,73.1073958
2021-04-01,73.1008333
2021-04-02,73.1
2021-04-03,73.0998958
2021-04-04,73.1014583
2021-04-05,73.1003125
2021-04-06,73.0972917
2021-04-07,73.09
2021-04-08,73.0898958
2021-04-09,73.0884375
2021-04-10,73.09
2021-04-11,73.0898958
2021-04-12,73.0886458
2021-04-13,73.0869792
2021-04-14,73.0805208
2021-04-15,73.0801042
2021-04-16,73.08
2021-04-17,73.0801042
2021-04-18,73.0797917
2021-04-19,73.0796875
2021-04-20,73.08
2021-04-21,73.08
2021-04-22,73.0792708
2021-04-23,73.0773958
2021-04-24,73.0770833
2021-04-25,73.0716667
2021-04-26,73.0703125
2021-04-27,73.0701042
2021-04-28,73.0704167
2021-04-29,73.07
2021-04-30,73.0701042
2021-05-01,73.0702083
2021-05-02,73.07
2021-05-03,73.07
2021-05-04,73.07
2021-05-05,73.07
2021-05-06,73.07
2021-05-07,73.07
2021-05-08,73.0692708
2021-05-09,73.0689583
2021-05-10,73.0686458
2021-05-11,73.0686458
2021-05-12,73.078125
2021-05-13,73.1341304
2021-05-14,73.1819792
2021-05-15,73.171413
2021-05-16,73.13125
2021-05-17,73.1063542
2021-05-18,73.1020833
2021-05-19,73.1026042
2021-05-20,73.1
2021-05-21,73.0997917
2021-05-22,73.1
2021-05-23,73.0997917
2021-05-24,73.0996875
2021-05-25,73.0994792
2021-05-26,73.09875
2021-05-27,73.0977083
2021-05-28,73.0939583
2021-05-29,73.0929167
2021-05-30,73.0909375
2021-05-31,73.0907292
2021-06-01,73.0905208
2021-06-02,73.0905208
2021-06-03,73.0901042
2021-06-04,73.0902083
2021-06-05,73.0901042
2021-06-06,73.09
2021-06-07,73.0897917
2021-06-08,73.0897917
2021-06-09,73.0891667
2021-06-10,73.0872917
2021-06-11,73.0829167
2021-06-12,73.081875
2021-06-13,73.08125
2021-06-14,73.2128125
2021-06-15,73.754375
2021-06-16,74.0583333
2021-06-17,74.1853125
2021-06-18,74.2708333
2021-06-19,74.3223958
2021-06-20,74.3595833
2021-06-21,75.073125
2021-06-22,76.8817708
2021-06-23,77.2765625
2021-06-24,76.8995833
2021-06-25,76.5617708
2021-06-26,76.4347917
2021-06-27,76.1607292
2021-06-28,75.8641667
2021-06-29,75.5755208
2021-06-30,75.5117708
2021-07-01,75.469375
2021-07-02,75.2977083
2021-07-03,75.2394792
2021-07-04,75.2107955
2021-07-05,75.1780208
2021-07-06,75.806875
2021-07-07,76.6364583
2021-07-08,76.1670833
2021-07-09,75.2489583
2021-07-10,74.861875
2021-07-11,74.5463542
2021-07-12,74.245
2021-07-13,73.9558333
2021-07-14,73.8738542
2021-07-15,74.7622917
2021-07-16,76.1544792
2021-07-17,76.399375
2021-07-18,76.3278125
2021-07-19,76.2720833
2021-07-20,76.2234375
2021-07-21,76.1823596
2021-07-22,76.1340279
2021-07-23,76.0856962
2021-07-24,76.0489583
2021-07-25,76.0191667
2021-07-26,75.989375
2021-07-27,75.9686458
2021-07-28,75.9688542
2021-07-29,75.8359375
2021-07-30,75.4329167
2021-07-31,75.1339583
2021-08-01,75.0958333
2021-08-02,75.074375
2021-08-03,75.053125
2021-08-04,74.9740625
2021-08-05,74.6536458
2021-08-06,74.3301042
2021-08-07,74.0927083
2021-08-08,73.883125
2021-08-09,73.7235417
2021-08-10,73.7019792
2021-08-11,73.685625
2021-08-12,74.3973958
2021-08-13,74.7697917
2021-08-14,74.7516667
2021-08-15,74.7366667
2021-08-16,74.726875
2021-08-17,75.4575
2021-08-18,76.449375
2021-08-19,76.0427083
2021-08-20,75.8719792
2021-08-21,75.8370833
2021-08-22,75.8073958
2021-08-23,75.78
2021-08-24,75.7489583
2021-08-25,75.7238542
2021-08-26,75.6954167
2021-08-27,75.673125
2021-08-28,75.6501042
2021-08-29,75.6286458
2021-08-30,75.6109375
2021-08-31,75.5813542
2021-09-01,75.5602083
2021-09-02,75.5366667
2021-09-03,75.4789583
2021-09-04,75.278125
2021-09-05,75.0771875
2021-09-06,74.8941667
2021-09-07,74.7361458
2021-09-08,74.580625
2021-09-09,74.4666667
2021-09-10,74.3917708
2021-09-11,74.2939583
2021-09-12,74.1978125
2021-09-13,74.1155208
2021-09-14,74.0977083
2021-09-15,74.0992708
2021-09-16,74.0904167
2021-09-17,74.0809375
2021-09-18,74.0904167
2021-09-19,74.1069792
2021-09-20,74.0905208
2021-09-21,74.0826042
2021-09-22,74.0916667
2021-09-23,74.06625
2021-09-24,74.0159375
2021-09-25,73.8628125
2021-09-26,73.7354167
2021-09-27,73.6195833
2021-09-28,73.5275
2021-09-29,73.4330208
2021-09-30,73.345625
2021-10-01,73.2619792
2021-10-02,73.1835417
2021-10-03,73.1202083
2021-10-04,73.0971875
2021-10-05,73.0907292
2021-10-06,73.0927083
2021-10-07,73.09
2021-10-08,73.0898958
2021-10-09,73.09
2021-10-10,73.0952083
2021-10-11,73.103125
2021-10-12,73.1
2021-10-13,73.0988542
2021-10-14,73.0908333
2021-10-15,73.09
2021-10-16,73.0898958
2021-10-17,73.0897826
2021-10-18,73.0827083
2021-10-19,73.08
2021-10-20,73.08
2021-10-21,73.0798958
2021-10-22,73.0853125
2021-10-23,73.09
2021-10-24,73.0961458
2021-10-25,73.1
2021-10-26,73.1
2021-10-27,73.1
2021-10-28,73.1
2021-10-29,73.0994792
2021-10-30,73.0994792
2021-10-31,73.1
2021-11-01,73.1
2021-11-02,73.1
2021-11-03,73.0978125
2021-11-04,73.09375
2021-11-05,73.0907292
2021-11-06,73.09
2021-11-07,73.09
2021-11-08,73.09
2021-11-09,73.0891667
2021-11-10,73.0805208
2021-11-11,73.0805208
2021-11-12,73.08
2021-11-13,73.08
2021-11-14,73.08
2021-11-15,73.08
2021-11-16,73.08
2021-11-17,73.0767708
2021-11-18,73.103125
2021-11-19,73.4952083
2021-11-20,73.6571875
2021-11-21,73.7965625
2021-11-22,73.9028125
2021-11-23,73.9376042
2021-11-24,73.9316667
2021-11-25,73.9352083
2021-11-26,73.9429167
2021-11-27,73.9482292
2021-11-28,73.9560417
2021-11-29,73.9654167
2021-11-30,73.9688542
2021-12-01,73.9765625
2021-12-02,73.9839583
2021-12-03,73.9496875
2021-12-04,73.9044792
2021-12-05,73.9186458
2021-12-06,73.9266667
2021-12-07,73.9408333
2021-12-08,73.9529167
2021-12-09,73.9675
2021-12-10,73.9529167
2021-12-11,73.9598958
2021-12-12,73.9716667
2021-12-13,73.9839773
2021-12-14,74.0055208
2021-12-15,74.0175
2021-12-16,74.0334375
2021-12-17,74.0401042
2021-12-18,74.0451042
2021-12-19,74.0539583
2021-12-20,74.0601042
2021-12-21,74.0679167
2021-12-22,74.0786458
2021-12-23,74.1198958
2021-12-24,74.1426042
2021-12-25,74.166875
2021-12-26,74.1894792
2021-12-27,74.2191667
2021-12-28,74.2279167
2021-12-29,74.2446875
2021-12-30,74.258125
2021-12-31,74.2745833
2022-01-01,74.3065625
2022-01-02,74.8355208
2022-01-03,75.1014583
2022-01-04,75.1853125
2022-01-05,74.8258333
2022-01-06,74.5504167
2022-01-07,74.4027083
2022-01-08,74.2314583
2022-01-09,74.0097917
2022-01-10,73.969375
2022-01-11,73.8113542
2022-01-12,73.59
2022-01-13,73.4742708
2022-01-14,73.338125
2022-01-15,73.3017708
2022-01-16,73.2538542
2022-01-17,73.2484375
2022-01-18,73.1777083
2022-01-19,73.15
2022-01-20,73.1951042
2022-01-21,73.2783333
2022-01-22,73.3294792
2022-01-23,73.4861458
2022-01-24,73.5754167
2022-01-25,73.4092391
2022-01-26,73.415
2022-01-27,73.3396875
2022-01-28,73.4967708
2022-01-29,73.5338542
2022-01-30,73.5716304
2022-01-31,73.7985417
2022-02-01,73.9511364
2022-02-02,73.8308333
2022-02-03,73.8015217
2022-02-04,73.8007609
2022-02-05,73.7892708
2022-02-06,73.7680435
2022-02-07,73.7313542
2022-02-08,73.5378125
2022-02-09,73.3627083
2022-02-10,73.2153261
2022-02-11,73.2241304
2022-02-12,73.2852083
2022-02-13,73.3345833
2022-02-14,73.4198958
2022-02-15,73.4815625
2022-02-16,73.5439583
2022-02-17,73.633125
2022-02-18,73.815625
2022-02-19,74.0160417
2022-02-20,74.2251042
2022-02-21,74.3507292
2022-02-22,74.5021875
2022-02-23,74.7059375
2022-02-24,75.182
2022-02-25,75.5546739
2022-02-26,76.1773958
2022-02-27,76.5951042
2022-02-28,76.6932609
2022-03-01,76.0339583
2022-03-02,75.9251042
2022-03-03,75.945
2022-03-04,76.0196591
2022-03-05,76.40125
2022-03-06,76.6028125
2022-03-07,76.8105435
2022-03-08,77.0092708
2022-03-09,77.2661458
2022-03-10,77.5933333
2022-03-11,77.3521875
2022-03-12,77.2746875
2022-03-13,77.2733333
2022-03-14,77.1977419
2022-03-15,77.1496875
2022-03-16,77.06875
2022-03-17,76.87875
2022-03-18,76.5257292
2022-03-19,76.4389583
2022-03-20,76.5025
2022-03-21,76.4217391
2022-03-22,76.3246875
2022-03-23,76.0465625
2022-03-24,76.1103125
2022-03-25,75.4246875
2022-03-26,76.4173958
2022-03-27,76.4354167
2022-03-28,76.768125
2022-03-29,76.7022917
2022-03-30,75.6603125
2022-03-31,74.5380208
2022-04-01,74.6303125
2022-04-02,74.4023958
2022-04-03,74.3954167
2022-04-04,74.5932292
2022-04-05,74.2941304
2022-04-06,74.6675
2022-04-07,74.8631522
2022-04-08,75.57125
2022-04-09,77.08125
2022-04-10,77.3938542
2022-04-11,76.7368478
2022-04-12,75.2580435
2022-04-13,74.1825
2022-04-14,74.1709375
2022-04-15,74.2072917
2022-04-16,73.7482143
2022-04-17,74.201875
2022-04-18,75.1102083
2022-04-19,75.7633333
2022-04-20,75.4369792
2022-04-21,74.7642708
2022-04-22,74.2140625
2022-04-23,74.0694792
2022-04-24,73.8596875
2022-04-25,73.3759375
2022-04-26,73.14
2022-04-27,73.14
2022-04-28,73.14
2022-04-29,73.1779167
2022-04-30,73.2303125
2022-05-01,73.1719792
2022-05-02,73.211875
2022-05-03,73.1407292
2022-05-04,73.1392708
2022-05-05,73.14
2022-05-06,73.1402083
2022-05-07,73.1426042
2022-05-08,73.1407292
2022-05-09,73.14
2022-05-10,73.1413542
2022-05-11,73.1401042
2022-05-12,73.1401042
2022-05-13,73.14
2022-05-14,73.14
2022-05-15,73.14
2022-05-16,73.1398958
2022-05-17,73.139375
2022-05-18,73.3836458
2022-05-19,74.57375
2022-05-20,75.370625
2022-05-21,75.7194792
2022-05-22,75.9910417
2022-05-23,75.9369792
2022-05-24,75.8828125
2022-05-25,75.7179167
2022-05-26,75.9241667
2022-05-27,76.4077083
2022-05-28,76.2660417
2022-05-29,76.1686458
2022-05-30,76.0373958
2022-05-31,75.9396875
2022-06-01,75.80375
2022-06-02,75.2628125
2022-06-03,74.4704167
2022-06-04,74.9323958
2022-06-05,75.2309375
2022-06-06,75.22
2022-06-07,75.200625
2022-06-08,75.1995833
2022-06-09,75.1794792
2022-06-10,75.1673958
2022-06-11,75.139375
2022-06-12,75.6380208
2022-06-13,76.0880208
2022-06-14,76.0348958
2022-06-15,75.9938542
2022-06-16,75.9590625
2022-06-17,75.916875
2022-06-18,75.8928125
2022-06-19,76.3092708
2022-06-20,76.4877083
2022-06-21,76.3896875
2022-06-22,76.3066667
2022-06-23,76.1340625
2022-06-24,76.021875
2022-06-25,75.9707292
2022-06-26,75.9253125
2022-06-27,75.8663542
2022-06-28,75.759375
2022-06-29,75.6647917
2022-06-30,75.6391667
2022-07-01,75.6065625
2022-07-02,75.4680208
2022-07-03,75.378125
2022-07-04,75.3604167
2022-07-05,75.3248958
2022-07-06,74.9653125
2022-07-07,74.4422917
2022-07-08,73.8004167
2022-07-09,73.343125
2022-07-10,73.2088542
2022-07-11,73.65125
2022-07-12,74.5492708
2022-07-13,75.3436458
2022-07-14,75.8057292
2022-07-15,75.7596875
2022-07-16,75.9532292
2022-07-17,76.0145833
2022-07-18,75.9580208
2022-07-19,75.9123958
2022-07-20,75.8145833
2022-07-21,75.6634375
2022-07-22,75.6234375
2022-07-23,75.5839583
2022-07-24,75.551875
2022-07-25,75.4907292
2022-07-26,75.2863542
2022-07-27,74.9203125
2022-07-28,74.5452083
2022-07-29,74.2770833
2022-07-30,74.2002083
2022-07-31,74.1026042
2022-08-01,74.0129167
2022-08-02,74.0005208
2022-08-03,74.005
2022-08-04,73.9853125
2022-08-05,73.9066667
2022-08-06,73.6540625
2022-08-07,73.5028125
2022-08-08,73.9461458
2022-08-09,75.0648958
2022-08-10,75.6658333
2022-08-11,75.5685417
2022-08-12,75.5217708
2022-08-13,75.4879167
2022-08-14,75.4221875
2022-08-15,75.7769792
2022-08-16,75.9446875
2022-08-17,75.9055208
2022-08-18,75.8689583
2022-08-19,75.8027083
2022-08-20,75.7041667
2022-08-21,75.6725
2022-08-22,75.61875
2022-08-23,75.5326042
2022-08-24,75.480625
2022-08-25,75.4527083